Hourly Data Report for October 02, 2017

All times are specified in Local Standard Time (LST). Add 1 hour to adjust for Daylight Saving Time where and when it is observed.

ESQUIMALT HARBOUR
BRITISH COLUMBIA

48°25'55.100" N
123°26'21.600" W
3.00 m
1012710
71798
WPF

Download Data

Hourly Data (October 2017)
Hourly Data Report for October 2, 2017
Temp Definition
°C
Dew Point Temp Definition
°C
Rel Hum Definition
%
Wind Dir Definition
10's deg

Wind Spd Definition
km/h
Visibility Definition
km
Stn Press Definition
kPa
Hmdx Definition


Wind Chill Definition


Weather Definition


TIME
00:00 8.1 6.5 90 35 6   102.00     LegendNANA
01:00 7.9 6.4 90 1 5   102.00     LegendNANA
02:00 8.1 6.4 89 1 6   101.99     LegendNANA
03:00 8.0 6.2 88 2 4   102.01     LegendNANA
04:00 8.7 6.7 88 36 9   102.02     LegendNANA
05:00 10.5 6.4 76 3 6   102.03     LegendNANA
06:00 11.3 6.7 73 1 7   102.04     LegendNANA
07:00 11.1 6.6 74 33 3   102.06     LegendNANA
08:00 12.3 6.4 67 2 6   102.07     LegendNANA
09:00 12.9 6.0 63 2 14   102.10     LegendNANA
10:00 13.7 5.9 60 34 15   102.11     LegendNANA
11:00 12.1 8.2 77 17 16   102.15     LegendNANA
12:00 11.9 8.4 79 19 14   102.15     LegendNANA
13:00 13.6 6.8 63 18 7   102.16     LegendNANA
14:00 13.0 7.5 69 18 8   102.15     LegendNANA
15:00 14.0 6.3 60 16 8   102.17     LegendNANA
16:00 12.9 8.5 75 18 13   102.19     LegendNANA
17:00 13.6 6.6 63 19 10   102.21     LegendNANA
18:00 14.3 5.5 55 17 6   102.23     LegendNANA
19:00 12.1 6.9 71 4 3   102.28     LegendNANA
20:00 11.5 7.1 74 2 6   102.35     LegendNANA
21:00 10.7 5.0 68 3 5   102.38     LegendNANA
22:00 10.2 5.2 72 36 6   102.41     LegendNANA
23:00 9.6 5.4 75 1 6   102.43     LegendNANA

Notes on Data Quality.

Legend

  • E = Estimated
  • M = Missing
  • NA = Not Available
  • ‡ = Partner data that is not subject to review by the National Climate Archives
Date modified: